Overview Statistics Trail Chart Weather Telemetry Raw packets
 

This is the latest recevied weather packets stored in our database for station/object KD7AWQ. If no packets are shown the sender has not sent any weather packets the latest 10 day(s).

<< 110 111 112 113 114 >>
Time Temp. Humidity Pressure Rain* Wind** Luminosity Snow
1787619922 34.44° C 22% 1186.2 hPa 0 mm - 87 W/m² -
1787619617 34.44° C 22% 1186.5 hPa 0 mm - 101 W/m² -
1787619313 35° C 21% 1186.5 hPa 0 mm - 118 W/m² -
1787619012 35.56° C 21% 1186.2 hPa 0 mm - 131 W/m² -
1787618707 35.56° C 21% 1186.2 hPa 0 mm - 147 W/m² -
1787618404 35.56° C 21% 1186.1 hPa 0 mm - 167 W/m² -
1787618101 36.11° C 20% 1186.1 hPa 0 mm - 186 W/m² -
1787617800 36.11° C 20% 1186.2 hPa 0 mm - 207 W/m² -
1787617495 36.11° C 20% 1186.4 hPa 0 mm - 225 W/m² -
1787617189 36.11° C 20% 1186.2 hPa 0 mm - 250 W/m² -
1787616884 36.11° C 20% 1186.3 hPa 0 mm - 277 W/m² -
1787616584 36.67° C 19% 1186.2 hPa 0 mm - 299 W/m² -
1787616283 36.67° C 19% 1186.2 hPa 0 mm - 321 W/m² -
1787615981 37.22° C 16% 1186.3 hPa 0 mm - 337 W/m² -
1787615677 37.22° C 15% 1186.4 hPa 0 mm - 359 W/m² -
1787615371 36.67° C 15% 1186.4 hPa 0 mm - 380 W/m² -
1787615067 36.67° C 15% 1186.4 hPa 0 mm - 395 W/m² -
1787614764 37.22° C 14% 1186.4 hPa 0 mm - 421 W/m² -
1787614460 37.22° C 14% 1186.3 hPa 0 mm - 445 W/m² -
1787614157 37.78° C 14% 1186.5 hPa 0 mm - 468 W/m² -
1787613853 36.67° C 15% 1186.2 hPa 0 mm - 490 W/m² -
1787613548 36.67° C 15% 1186.5 hPa 0 mm - 511 W/m² -
1787613243 36.11° C 15% 1186.4 hPa 0 mm - 530 W/m² -
1787612940 36.11° C 15% 1186.7 hPa 0 mm - 550 W/m² -
1787612636 36.67° C 15% 1186.6 hPa 0 mm - 570 W/m² -

* Rain latest hour (hover to see other rain measurements)
** Current wind speed in m/s (hover to see current wind gust speed)